SL-8 R/B, 23190

Orbit data source: Space-Track

SL-8 R/B, 23190 is space debris in LEO originally from a launch on Tue, 02 Aug 1994 UTC launched from the Plesetsk Missile And Space Complex (PKMTR). Debris objects in space refer to the collection of defunct objects orbiting the Earth. Examples of debris include non-operational satellites, rocket bodies, and fragments generated from explosions, collisions, or faulty payload assembly.

Loading next visibility...
Identifier
23190, 1994-045B
Orbit
LEO
Country
Flag of CISCIS
Related business
Manufacturer
Polyot
Mission
Spacecraft
Bus & Motor
S3, Unknown motor
Mass
1,434 kg wet, 1,434 kg dry
Launch date (UTC)
1994-08-02 (31 years ago)
Launch vehicle
Unknown
Launch site
Plesetsk Missile And Space Complex (PKMTR)
Object type
Payload
Rocket body
Debris
Shape & HBR
Cyl, 3.3 m
Radar Cross Section
14.646 m², Large (>1 m²)

Expand to show TLE details & history
Last TLE update: 13 hours ago

TLE from 13 hours ago
0 SL-8 R/B
1 23190U 94045B   25261.07387700  .00000042  00000-0  68542-4 0  9990
2 23190  74.0294 145.9165 0019174 176.8640 183.2604 13.74344217561101
Epoch: 2025-09-18T01:46Z
TLE epoch observation values (Epoch: 2025-09-18T01:46:22.972Z)
Latitude
0.00003°
Longitude
122.08009°
Altitude
1,000.647 km
Speed
7.345 km/s
True Right ascension
09h 43m 39s
True Declination
0° 00' 00"
Sunlit
Object was in daylight at epoch
Visualization orbit readout
Latitude
Unknown
Longitude
Unknown
Altitude
Unknown
Speed
Unknown
Apparent Right ascension
Unknown
Apparent Declination
Unknown
Sunlit
N/A
Visualization observer readout
Local Sidereal Time
07:10:01
Azimuth
Unknown
Elevation
Unknown
Doppler factor
Unknown
Orbital elements
Apogee altitude
995.821 km
Perigee altitude
967.597 km
Semi-major axis
7,359.846 km
Eccentricity
0.00192
Inclination
74.0294°
RAAN
145.9165°
Arg. of periapsis
176.864°
True anomaly
183.24793°
Mean anomaly
183.2604°
Eccentric anomaly
183.25416°
Mean motion
3.43748 °/min
Orbital period
104.73 mins
BSTAR
0.000068542
Loading maneuver chart data...
Computing Atmospheric mass density...
Loading historical data...
Loading historical data...
Loading historical data...
Loading historical data...
Loading historical data...
Loading historical data...
Loading historical data...
Other satellites on launch #45 in the year 1994 (1994-08-02 UTC)

Documentation

Showing up to 5 results
|